owner,sensor,date,latitude,longitude,relative_humidity,qcFlag 
DISL,ioos:station:DISL:KATA:1,2011-12-01T00:00:00Z,30.2583,-88.2131,47.55,1111122 
DISL,ioos:station:DISL:KATA:1,2011-12-01T00:30:00Z,30.2583,-88.2131,48.81,1111122 
DISL,ioos:station:DISL:KATA:1,2011-12-01T01:00:00Z,30.2583,-88.2131,44.36,1111122 
DISL,ioos:station:DISL:KATA:1,2011-12-01T01:30:00Z,30.2583,-88.2131,48.82,1111122 
DISL,ioos:station:DISL:KATA:1,2011-12-01T02:00:00Z,30.2583,-88.2131,45.05,1111122 
DISL,ioos:station:DISL:KATA:1,2011-12-01T02:30:00Z,30.2583,-88.2131,52.59,1111122 
DISL,ioos:station:DISL:KATA:1,2011-12-01T03:00:00Z,30.2583,-88.2131,53.17,1111122 
DISL,ioos:station:DISL:KATA:1,2011-12-01T03:30:00Z,30.2583,-88.2131,47.56,1111122 
DISL,ioos:station:DISL:KATA:1,2011-12-01T04:00:00Z,30.2583,-88.2131,47.19,1111122 
DISL,ioos:station:DISL:KATA:1,2011-12-01T04:30:00Z,30.2583,-88.2131,50.66,1111122 
DISL,ioos:station:DISL:KATA:1,2011-12-01T05:00:00Z,30.2583,-88.2131,51.04,1111122 
DISL,ioos:station:DISL:KATA:1,2011-12-01T05:30:00Z,30.2583,-88.2131,52.63,1111122 
DISL,ioos:station:DISL:KATA:1,2011-12-01T06:00:00Z,30.2583,-88.2131,57.63,1111122 
DISL,ioos:station:DISL:KATA:1,2011-12-01T06:30:00Z,30.2583,-88.2131,65.04,1111122 
DISL,ioos:station:DISL:KATA:1,2011-12-01T07:00:00Z,30.2583,-88.2131,72.58,1111122 
DISL,ioos:station:DISL:KATA:1,2011-12-01T07:30:00Z,30.2583,-88.2131,71.78,1111122 
DISL,ioos:station:DISL:KATA:1,2011-12-01T08:00:00Z,30.2583,-88.2131,71.03,1111122 
DISL,ioos:station:DISL:KATA:1,2011-12-01T08:30:00Z,30.2583,-88.2131,72.83,1111122 
DISL,ioos:station:DISL:KATA:1,2011-12-01T09:00:00Z,30.2583,-88.2131,71.57,1111122 
DISL,ioos:station:DISL:KATA:1,2011-12-01T09:30:00Z,30.2583,-88.2131,71.5,1111122 
DISL,ioos:station:DISL:KATA:1,2011-12-01T10:00:00Z,30.2583,-88.2131,72.46,1111122 
DISL,ioos:station:DISL:KATA:1,2011-12-01T10:30:00Z,30.2583,-88.2131,71.71,1111122 
DISL,ioos:station:DISL:KATA:1,2011-12-01T11:00:00Z,30.2583,-88.2131,72.01,1111122 
DISL,ioos:station:DISL:KATA:1,2011-12-01T11:30:00Z,30.2583,-88.2131,71.37,1111122 
DISL,ioos:station:DISL:KATA:1,2011-12-01T12:00:00Z,30.2583,-88.2131,68.89,1111122 
DISL,ioos:station:DISL:KATA:1,2011-12-01T12:30:00Z,30.2583,-88.2131,70.11,1111122 
DISL,ioos:station:DISL:KATA:1,2011-12-01T13:00:00Z,30.2583,-88.2131,75.82,1111122 
DISL,ioos:station:DISL:KATA:1,2011-12-01T13:30:00Z,30.2583,-88.2131,69.97,1111122 
DISL,ioos:station:DISL:KATA:1,2011-12-01T14:00:00Z,30.2583,-88.2131,67.99,1111122 
DISL,ioos:station:DISL:KATA:1,2011-12-01T14:30:00Z,30.2583,-88.2131,73.69,1111122 
DISL,ioos:station:DISL:KATA:1,2011-12-01T15:00:00Z,30.2583,-88.2131,70.63,1111122 
DISL,ioos:station:DISL:KATA:1,2011-12-01T15:30:00Z,30.2583,-88.2131,60.5,1111122 
DISL,ioos:station:DISL:KATA:1,2011-12-01T16:00:00Z,30.2583,-88.2131,58.09,1111122 
DISL,ioos:station:DISL:KATA:1,2011-12-01T16:30:00Z,30.2583,-88.2131,56.66,1111122 
DISL,ioos:station:DISL:KATA:1,2011-12-01T17:00:00Z,30.2583,-88.2131,57.24,1111122 
DISL,ioos:station:DISL:KATA:1,2011-12-01T17:30:00Z,30.2583,-88.2131,57.13,1111122 
DISL,ioos:station:DISL:KATA:1,2011-12-01T18:00:00Z,30.2583,-88.2131,58.25,1111122 
DISL,ioos:station:DISL:KATA:1,2011-12-01T18:30:00Z,30.2583,-88.2131,59.1,1111122 
DISL,ioos:station:DISL:KATA:1,2011-12-01T19:00:00Z,30.2583,-88.2131,63.65,1111122 
DISL,ioos:station:DISL:KATA:1,2011-12-01T19:30:00Z,30.2583,-88.2131,62.74,1111122 
DISL,ioos:station:DISL:KATA:1,2011-12-01T20:00:00Z,30.2583,-88.2131,68.51,1111122 
DISL,ioos:station:DISL:KATA:1,2011-12-01T20:30:00Z,30.2583,-88.2131,66.64,1111122 
DISL,ioos:station:DISL:KATA:1,2011-12-01T21:00:00Z,30.2583,-88.2131,63.21,1111122 
DISL,ioos:station:DISL:KATA:1,2011-12-01T21:30:00Z,30.2583,-88.2131,61.74,1111122 
DISL,ioos:station:DISL:KATA:1,2011-12-01T22:00:00Z,30.2583,-88.2131,61.3,1111122 
DISL,ioos:station:DISL:KATA:1,2011-12-01T22:30:00Z,30.2583,-88.2131,61.13,1111122 
DISL,ioos:station:DISL:KATA:1,2011-12-01T23:00:00Z,30.2583,-88.2131,50.4,1111122 
DISL,ioos:station:DISL:KATA:1,2011-12-01T23:30:00Z,30.2583,-88.2131,56.79,1111122 
DISL,ioos:station:DISL:KATA:1,2011-12-02T00:00:00Z,30.2583,-88.2131,59.68,1111122 
DISL,ioos:station:DISL:KATA:1,2011-12-02T00:30:00Z,30.2583,-88.2131,66.44,1111122 
DISL,ioos:station:DISL:KATA:1,2011-12-02T01:00:00Z,30.2583,-88.2131,78.06,1111122 
DISL,ioos:station:DISL:KATA:1,2011-12-02T01:30:00Z,30.2583,-88.2131,77.82,1111122 
DISL,ioos:station:DISL:KATA:1,2011-12-02T02:00:00Z,30.2583,-88.2131,77.38,1111122 
DISL,ioos:station:DISL:KATA:1,2011-12-02T02:30:00Z,30.2583,-88.2131,62.03,1111122 
DISL,ioos:station:DISL:KATA:1,2011-12-02T03:00:00Z,30.2583,-88.2131,68.39,1111122 
DISL,ioos:station:DISL:KATA:1,2011-12-02T03:30:00Z,30.2583,-88.2131,74.67,1111122 
DISL,ioos:station:DISL:KATA:1,2011-12-02T04:00:00Z,30.2583,-88.2131,78.85,1111122 
DISL,ioos:station:DISL:KATA:1,2011-12-02T04:30:00Z,30.2583,-88.2131,81.7,1111122 
DISL,ioos:station:DISL:KATA:1,2011-12-02T05:00:00Z,30.2583,-88.2131,84.0,1111122 
DISL,ioos:station:DISL:KATA:1,2011-12-02T05:30:00Z,30.2583,-88.2131,83.7,1111122 
DISL,ioos:station:DISL:KATA:1,2011-12-02T06:00:00Z,30.2583,-88.2131,84.2,1111122 
DISL,ioos:station:DISL:KATA:1,2011-12-02T06:30:00Z,30.2583,-88.2131,68.18,1111122 
DISL,ioos:station:DISL:KATA:1,2011-12-02T07:00:00Z,30.2583,-88.2131,66.72,1111122 
DISL,ioos:station:DISL:KATA:1,2011-12-02T07:30:00Z,30.2583,-88.2131,69.91,1111122 
DISL,ioos:station:DISL:KATA:1,2011-12-02T08:00:00Z,30.2583,-88.2131,68.51,1111122 
DISL,ioos:station:DISL:KATA:1,2011-12-02T08:30:00Z,30.2583,-88.2131,70.75,1111122 
DISL,ioos:station:DISL:KATA:1,2011-12-02T09:00:00Z,30.2583,-88.2131,68.68,1111122 
DISL,ioos:station:DISL:KATA:1,2011-12-02T09:30:00Z,30.2583,-88.2131,71.47,1111122 
DISL,ioos:station:DISL:KATA:1,2011-12-02T10:00:00Z,30.2583,-88.2131,69.97,1111122 
DISL,ioos:station:DISL:KATA:1,2011-12-02T10:30:00Z,30.2583,-88.2131,69.8,1111122 
DISL,ioos:station:DISL:KATA:1,2011-12-02T11:00:00Z,30.2583,-88.2131,69.36,1111122 
DISL,ioos:station:DISL:KATA:1,2011-12-02T11:30:00Z,30.2583,-88.2131,68.44,1111122 
DISL,ioos:station:DISL:KATA:1,2011-12-02T12:00:00Z,30.2583,-88.2131,69.87,1111122 
DISL,ioos:station:DISL:KATA:1,2011-12-02T12:30:00Z,30.2583,-88.2131,75.88,1111122 
DISL,ioos:station:DISL:KATA:1,2011-12-02T13:00:00Z,30.2583,-88.2131,83.0,1111122 
DISL,ioos:station:DISL:KATA:1,2011-12-02T13:30:00Z,30.2583,-88.2131,82.9,1111122 
DISL,ioos:station:DISL:KATA:1,2011-12-02T14:00:00Z,30.2583,-88.2131,79.12,1111122 
DISL,ioos:station:DISL:KATA:1,2011-12-02T14:30:00Z,30.2583,-88.2131,76.81,1111122 
DISL,ioos:station:DISL:KATA:1,2011-12-02T15:00:00Z,30.2583,-88.2131,71.91,1111122 
DISL,ioos:station:DISL:KATA:1,2011-12-02T15:30:00Z,30.2583,-88.2131,72.64,1111122 
DISL,ioos:station:DISL:KATA:1,2011-12-02T16:00:00Z,30.2583,-88.2131,69.41,1111122 
DISL,ioos:station:DISL:KATA:1,2011-12-02T16:30:00Z,30.2583,-88.2131,72.46,1111122 
DISL,ioos:station:DISL:KATA:1,2011-12-02T17:00:00Z,30.2583,-88.2131,69.3,1111122 
DISL,ioos:station:DISL:KATA:1,2011-12-02T17:30:00Z,30.2583,-88.2131,67.48,1111122 
DISL,ioos:station:DISL:KATA:1,2011-12-02T18:00:00Z,30.2583,-88.2131,65.34,1111122 
DISL,ioos:station:DISL:KATA:1,2011-12-02T18:30:00Z,30.2583,-88.2131,65.27,1111122 
DISL,ioos:station:DISL:KATA:1,2011-12-02T19:00:00Z,30.2583,-88.2131,63.92,1111122 
DISL,ioos:station:DISL:KATA:1,2011-12-02T19:30:00Z,30.2583,-88.2131,63.27,1111122 
DISL,ioos:station:DISL:KATA:1,2011-12-02T20:00:00Z,30.2583,-88.2131,66.29,1111122 
DISL,ioos:station:DISL:KATA:1,2011-12-02T20:30:00Z,30.2583,-88.2131,65.89,1111122 
DISL,ioos:station:DISL:KATA:1,2011-12-02T21:00:00Z,30.2583,-88.2131,64.63,1111122 
DISL,ioos:station:DISL:KATA:1,2011-12-02T21:30:00Z,30.2583,-88.2131,64.63,1111122 
DISL,ioos:station:DISL:KATA:1,2011-12-02T22:00:00Z,30.2583,-88.2131,64.32,1111122 
DISL,ioos:station:DISL:KATA:1,2011-12-02T22:30:00Z,30.2583,-88.2131,78.72,1111122 
DISL,ioos:station:DISL:KATA:1,2011-12-02T23:00:00Z,30.2583,-88.2131,80.2,1111122 
DISL,ioos:station:DISL:KATA:1,2011-12-02T23:30:00Z,30.2583,-88.2131,80.2,1111122 
DISL,ioos:station:DISL:KATA:1,2011-12-03T00:00:00Z,30.2583,-88.2131,78.3,1111122 
DISL,ioos:station:DISL:KATA:1,2011-12-03T00:30:00Z,30.2583,-88.2131,78.61,1111122 
DISL,ioos:station:DISL:KATA:1,2011-12-03T01:00:00Z,30.2583,-88.2131,78.85,1111122 
DISL,ioos:station:DISL:KATA:1,2011-12-03T01:30:00Z,30.2583,-88.2131,78.91,1111122 
DISL,ioos:station:DISL:KATA:1,2011-12-03T02:00:00Z,30.2583,-88.2131,79.05,1111122 
DISL,ioos:station:DISL:KATA:1,2011-12-03T02:30:00Z,30.2583,-88.2131,79.73,1111122 
DISL,ioos:station:DISL:KATA:1,2011-12-03T03:00:00Z,30.2583,-88.2131,81.5,1111122 
DISL,ioos:station:DISL:KATA:1,2011-12-03T03:30:00Z,30.2583,-88.2131,83.3,1111122 
DISL,ioos:station:DISL:KATA:1,2011-12-03T04:00:00Z,30.2583,-88.2131,85.1,1111122 
DISL,ioos:station:DISL:KATA:1,2011-12-03T04:30:00Z,30.2583,-88.2131,87.2,1111122 
DISL,ioos:station:DISL:KATA:1,2011-12-03T05:00:00Z,30.2583,-88.2131,87.3,1111122 
DISL,ioos:station:DISL:KATA:1,2011-12-03T05:30:00Z,30.2583,-88.2131,86.6,1111122 
DISL,ioos:station:DISL:KATA:1,2011-12-03T06:00:00Z,30.2583,-88.2131,85.3,1111122 
DISL,ioos:station:DISL:KATA:1,2011-12-03T06:30:00Z,30.2583,-88.2131,84.4,1111122 
DISL,ioos:station:DISL:KATA:1,2011-12-03T07:00:00Z,30.2583,-88.2131,83.5,1111122 
DISL,ioos:station:DISL:KATA:1,2011-12-03T07:30:00Z,30.2583,-88.2131,78.04,1111122 
DISL,ioos:station:DISL:KATA:1,2011-12-03T08:00:00Z,30.2583,-88.2131,77.36,1111122 
DISL,ioos:station:DISL:KATA:1,2011-12-03T08:30:00Z,30.2583,-88.2131,75.36,1111122 
DISL,ioos:station:DISL:KATA:1,2011-12-03T09:00:00Z,30.2583,-88.2131,75.9,1111122 
DISL,ioos:station:DISL:KATA:1,2011-12-03T09:30:00Z,30.2583,-88.2131,76.62,1111122 
DISL,ioos:station:DISL:KATA:1,2011-12-03T10:00:00Z,30.2583,-88.2131,77.16,1111122 
DISL,ioos:station:DISL:KATA:1,2011-12-03T10:30:00Z,30.2583,-88.2131,77.23,1111122 
DISL,ioos:station:DISL:KATA:1,2011-12-03T11:00:00Z,30.2583,-88.2131,77.84,1111122 
DISL,ioos:station:DISL:KATA:1,2011-12-03T11:30:00Z,30.2583,-88.2131,77.13,1111122 
DISL,ioos:station:DISL:KATA:1,2011-12-03T12:00:00Z,30.2583,-88.2131,77.98,1111122 
DISL,ioos:station:DISL:KATA:1,2011-12-03T12:30:00Z,30.2583,-88.2131,77.64,1111122 
DISL,ioos:station:DISL:KATA:1,2011-12-03T13:00:00Z,30.2583,-88.2131,77.98,1111122 
DISL,ioos:station:DISL:KATA:1,2011-12-03T13:30:00Z,30.2583,-88.2131,75.7,1111122 
DISL,ioos:station:DISL:KATA:1,2011-12-03T14:00:00Z,30.2583,-88.2131,75.21,1111122 
DISL,ioos:station:DISL:KATA:1,2011-12-03T14:30:00Z,30.2583,-88.2131,73.41,1111122 
DISL,ioos:station:DISL:KATA:1,2011-12-03T15:00:00Z,30.2583,-88.2131,74.36,1111122 
DISL,ioos:station:DISL:KATA:1,2011-12-03T15:30:00Z,30.2583,-88.2131,76.0,1111122 
DISL,ioos:station:DISL:KATA:1,2011-12-03T16:00:00Z,30.2583,-88.2131,75.7,1111122 
DISL,ioos:station:DISL:KATA:1,2011-12-03T16:30:00Z,30.2583,-88.2131,74.3,1111122 
DISL,ioos:station:DISL:KATA:1,2011-12-03T17:00:00Z,30.2583,-88.2131,74.0,1111122 
DISL,ioos:station:DISL:KATA:1,2011-12-03T17:30:00Z,30.2583,-88.2131,77.97,1111122 
DISL,ioos:station:DISL:KATA:1,2011-12-03T18:00:00Z,30.2583,-88.2131,78.78,1111122 
DISL,ioos:station:DISL:KATA:1,2011-12-03T18:30:00Z,30.2583,-88.2131,76.64,1111122 
DISL,ioos:station:DISL:KATA:1,2011-12-03T19:00:00Z,30.2583,-88.2131,78.63,1111122 
DISL,ioos:station:DISL:KATA:1,2011-12-03T19:30:00Z,30.2583,-88.2131,79.65,1111122 
DISL,ioos:station:DISL:KATA:1,2011-12-03T20:00:00Z,30.2583,-88.2131,80.8,1111122 
DISL,ioos:station:DISL:KATA:1,2011-12-03T20:30:00Z,30.2583,-88.2131,79.48,1111122 
DISL,ioos:station:DISL:KATA:1,2011-12-03T21:00:00Z,30.2583,-88.2131,76.4,1111122 
DISL,ioos:station:DISL:KATA:1,2011-12-03T21:30:00Z,30.2583,-88.2131,76.53,1111122 
DISL,ioos:station:DISL:KATA:1,2011-12-03T22:00:00Z,30.2583,-88.2131,81.2,1111122 
DISL,ioos:station:DISL:KATA:1,2011-12-03T22:30:00Z,30.2583,-88.2131,80.7,1111122 
DISL,ioos:station:DISL:KATA:1,2011-12-03T23:00:00Z,30.2583,-88.2131,82.7,1111122 
DISL,ioos:station:DISL:KATA:1,2011-12-03T23:30:00Z,30.2583,-88.2131,81.5,1111122 
DISL,ioos:station:DISL:KATA:1,2011-12-04T00:00:00Z,30.2583,-88.2131,81.2,1111122 
DISL,ioos:station:DISL:KATA:1,2011-12-04T00:30:00Z,30.2583,-88.2131,82.2,1111122 
DISL,ioos:station:DISL:KATA:1,2011-12-04T01:00:00Z,30.2583,-88.2131,84.0,1111122 
DISL,ioos:station:DISL:KATA:1,2011-12-04T01:30:00Z,30.2583,-88.2131,82.3,1111122 
DISL,ioos:station:DISL:KATA:1,2011-12-04T02:00:00Z,30.2583,-88.2131,83.9,1111122 
DISL,ioos:station:DISL:KATA:1,2011-12-04T02:30:00Z,30.2583,-88.2131,83.9,1111122 
DISL,ioos:station:DISL:KATA:1,2011-12-04T03:00:00Z,30.2583,-88.2131,84.5,1111122 
DISL,ioos:station:DISL:KATA:1,2011-12-04T03:30:00Z,30.2583,-88.2131,83.7,1111122 
DISL,ioos:station:DISL:KATA:1,2011-12-04T04:00:00Z,30.2583,-88.2131,83.2,1111122 
DISL,ioos:station:DISL:KATA:1,2011-12-04T04:30:00Z,30.2583,-88.2131,83.4,1111122 
DISL,ioos:station:DISL:KATA:1,2011-12-04T05:00:00Z,30.2583,-88.2131,85.2,1111122 
DISL,ioos:station:DISL:KATA:1,2011-12-04T05:30:00Z,30.2583,-88.2131,83.6,1111122 
DISL,ioos:station:DISL:KATA:1,2011-12-04T06:00:00Z,30.2583,-88.2131,85.0,1111122 
DISL,ioos:station:DISL:KATA:1,2011-12-04T06:30:00Z,30.2583,-88.2131,85.2,1111122 
DISL,ioos:station:DISL:KATA:1,2011-12-04T07:00:00Z,30.2583,-88.2131,85.4,1111122 
DISL,ioos:station:DISL:KATA:1,2011-12-04T07:30:00Z,30.2583,-88.2131,86.8,1111122 
DISL,ioos:station:DISL:KATA:1,2011-12-04T08:00:00Z,30.2583,-88.2131,87.3,1111122 
DISL,ioos:station:DISL:KATA:1,2011-12-04T08:30:00Z,30.2583,-88.2131,86.4,1111122 
DISL,ioos:station:DISL:KATA:1,2011-12-04T09:00:00Z,30.2583,-88.2131,84.4,1111122 
DISL,ioos:station:DISL:KATA:1,2011-12-04T09:30:00Z,30.2583,-88.2131,86.5,1111122 
DISL,ioos:station:DISL:KATA:1,2011-12-04T10:00:00Z,30.2583,-88.2131,86.7,1111122 
DISL,ioos:station:DISL:KATA:1,2011-12-04T10:30:00Z,30.2583,-88.2131,87.3,1111122 
DISL,ioos:station:DISL:KATA:1,2011-12-04T11:00:00Z,30.2583,-88.2131,88.4,1111122 
DISL,ioos:station:DISL:KATA:1,2011-12-04T11:30:00Z,30.2583,-88.2131,89.0,1111122 
DISL,ioos:station:DISL:KATA:1,2011-12-04T12:00:00Z,30.2583,-88.2131,88.6,1111122 
DISL,ioos:station:DISL:KATA:1,2011-12-04T12:30:00Z,30.2583,-88.2131,87.1,1111122 
DISL,ioos:station:DISL:KATA:1,2011-12-04T13:00:00Z,30.2583,-88.2131,90.7,1111122 
DISL,ioos:station:DISL:KATA:1,2011-12-04T13:30:00Z,30.2583,-88.2131,87.1,1111122 
DISL,ioos:station:DISL:KATA:1,2011-12-04T14:00:00Z,30.2583,-88.2131,87.6,1111122 
DISL,ioos:station:DISL:KATA:1,2011-12-04T14:30:00Z,30.2583,-88.2131,85.9,1111122 
DISL,ioos:station:DISL:KATA:1,2011-12-04T15:00:00Z,30.2583,-88.2131,86.9,1111122 
DISL,ioos:station:DISL:KATA:1,2011-12-04T15:30:00Z,30.2583,-88.2131,87.0,1111122 
DISL,ioos:station:DISL:KATA:1,2011-12-04T16:00:00Z,30.2583,-88.2131,87.1,1111122 
DISL,ioos:station:DISL:KATA:1,2011-12-04T16:30:00Z,30.2583,-88.2131,87.5,1111122 
DISL,ioos:station:DISL:KATA:1,2011-12-04T17:00:00Z,30.2583,-88.2131,86.3,1111122 
DISL,ioos:station:DISL:KATA:1,2011-12-04T17:30:00Z,30.2583,-88.2131,86.7,1111122 
DISL,ioos:station:DISL:KATA:1,2011-12-04T18:00:00Z,30.2583,-88.2131,87.4,1111122 
DISL,ioos:station:DISL:KATA:1,2011-12-04T18:30:00Z,30.2583,-88.2131,87.6,1111122 
DISL,ioos:station:DISL:KATA:1,2011-12-04T19:00:00Z,30.2583,-88.2131,87.8,1111122 
DISL,ioos:station:DISL:KATA:1,2011-12-04T19:30:00Z,30.2583,-88.2131,87.0,1111122 
DISL,ioos:station:DISL:KATA:1,2011-12-04T20:00:00Z,30.2583,-88.2131,87.8,1111122 
DISL,ioos:station:DISL:KATA:1,2011-12-04T20:30:00Z,30.2583,-88.2131,88.2,1111122 
DISL,ioos:station:DISL:KATA:1,2011-12-04T21:00:00Z,30.2583,-88.2131,88.3,1111122 
DISL,ioos:station:DISL:KATA:1,2011-12-04T21:30:00Z,30.2583,-88.2131,88.4,1111122 
DISL,ioos:station:DISL:KATA:1,2011-12-04T22:00:00Z,30.2583,-88.2131,89.9,1111122 
DISL,ioos:station:DISL:KATA:1,2011-12-04T22:30:00Z,30.2583,-88.2131,90.0,1111122 
DISL,ioos:station:DISL:KATA:1,2011-12-04T23:00:00Z,30.2583,-88.2131,90.5,1111122 
DISL,ioos:station:DISL:KATA:1,2011-12-04T23:30:00Z,30.2583,-88.2131,90.8,1111122 
DISL,ioos:station:DISL:KATA:1,2011-12-05T00:00:00Z,30.2583,-88.2131,90.2,1111122 
DISL,ioos:station:DISL:KATA:1,2011-12-05T00:30:00Z,30.2583,-88.2131,89.3,1111122 
DISL,ioos:station:DISL:KATA:1,2011-12-05T01:00:00Z,30.2583,-88.2131,89.7,1111122 
DISL,ioos:station:DISL:KATA:1,2011-12-05T01:30:00Z,30.2583,-88.2131,89.2,1111122 
DISL,ioos:station:DISL:KATA:1,2011-12-05T02:00:00Z,30.2583,-88.2131,88.3,1111122 
DISL,ioos:station:DISL:KATA:1,2011-12-05T02:30:00Z,30.2583,-88.2131,88.9,1111122 
DISL,ioos:station:DISL:KATA:1,2011-12-05T03:00:00Z,30.2583,-88.2131,87.9,1111122 
DISL,ioos:station:DISL:KATA:1,2011-12-05T03:30:00Z,30.2583,-88.2131,88.3,1111122 
DISL,ioos:station:DISL:KATA:1,2011-12-05T04:00:00Z,30.2583,-88.2131,87.2,1111122 
DISL,ioos:station:DISL:KATA:1,2011-12-05T04:30:00Z,30.2583,-88.2131,87.8,1111122 
DISL,ioos:station:DISL:KATA:1,2011-12-05T05:00:00Z,30.2583,-88.2131,86.6,1111122 
DISL,ioos:station:DISL:KATA:1,2011-12-05T05:30:00Z,30.2583,-88.2131,85.9,1111122 
DISL,ioos:station:DISL:KATA:1,2011-12-05T06:00:00Z,30.2583,-88.2131,87.2,1111122 
DISL,ioos:station:DISL:KATA:1,2011-12-05T06:30:00Z,30.2583,-88.2131,87.7,1111122 
DISL,ioos:station:DISL:KATA:1,2011-12-05T07:00:00Z,30.2583,-88.2131,87.8,1111122 
DISL,ioos:station:DISL:KATA:1,2011-12-05T07:30:00Z,30.2583,-88.2131,89.2,1111122 
DISL,ioos:station:DISL:KATA:1,2011-12-05T08:00:00Z,30.2583,-88.2131,88.8,1111122 
DISL,ioos:station:DISL:KATA:1,2011-12-05T08:30:00Z,30.2583,-88.2131,89.3,1111122 
DISL,ioos:station:DISL:KATA:1,2011-12-05T09:00:00Z,30.2583,-88.2131,89.7,1111122 
DISL,ioos:station:DISL:KATA:1,2011-12-05T09:30:00Z,30.2583,-88.2131,90.6,1111122 
DISL,ioos:station:DISL:KATA:1,2011-12-05T10:00:00Z,30.2583,-88.2131,90.1,1111122 
DISL,ioos:station:DISL:KATA:1,2011-12-05T10:30:00Z,30.2583,-88.2131,89.6,1111122 
DISL,ioos:station:DISL:KATA:1,2011-12-05T11:00:00Z,30.2583,-88.2131,88.6,1111122 
DISL,ioos:station:DISL:KATA:1,2011-12-05T11:30:00Z,30.2583,-88.2131,90.2,1111122 
DISL,ioos:station:DISL:KATA:1,2011-12-05T12:00:00Z,30.2583,-88.2131,90.3,1111122 
DISL,ioos:station:DISL:KATA:1,2011-12-05T12:30:00Z,30.2583,-88.2131,90.4,1111122 
DISL,ioos:station:DISL:KATA:1,2011-12-05T13:00:00Z,30.2583,-88.2131,91.1,1111122 
DISL,ioos:station:DISL:KATA:1,2011-12-05T13:30:00Z,30.2583,-88.2131,90.4,1111122 
DISL,ioos:station:DISL:KATA:1,2011-12-05T14:00:00Z,30.2583,-88.2131,87.5,1111122 
DISL,ioos:station:DISL:KATA:1,2011-12-05T14:30:00Z,30.2583,-88.2131,89.2,1111122 
DISL,ioos:station:DISL:KATA:1,2011-12-05T15:00:00Z,30.2583,-88.2131,90.3,1111122 
DISL,ioos:station:DISL:KATA:1,2011-12-05T15:30:00Z,30.2583,-88.2131,90.7,1111122 
DISL,ioos:station:DISL:KATA:1,2011-12-05T16:00:00Z,30.2583,-88.2131,91.8,1111122 
DISL,ioos:station:DISL:KATA:1,2011-12-05T16:30:00Z,30.2583,-88.2131,92.0,1111122 
DISL,ioos:station:DISL:KATA:1,2011-12-05T17:00:00Z,30.2583,-88.2131,90.8,1111122 
DISL,ioos:station:DISL:KATA:1,2011-12-05T17:30:00Z,30.2583,-88.2131,91.5,1111122 
DISL,ioos:station:DISL:KATA:1,2011-12-05T18:00:00Z,30.2583,-88.2131,93.3,1111122 
DISL,ioos:station:DISL:KATA:1,2011-12-05T18:30:00Z,30.2583,-88.2131,91.3,1111122 
DISL,ioos:station:DISL:KATA:1,2011-12-05T19:00:00Z,30.2583,-88.2131,93.0,1111122 
DISL,ioos:station:DISL:KATA:1,2011-12-05T19:30:00Z,30.2583,-88.2131,93.8,1111122 
DISL,ioos:station:DISL:KATA:1,2011-12-05T20:00:00Z,30.2583,-88.2131,92.3,1111122 
DISL,ioos:station:DISL:KATA:1,2011-12-05T20:30:00Z,30.2583,-88.2131,90.6,1111122 
DISL,ioos:station:DISL:KATA:1,2011-12-05T21:00:00Z,30.2583,-88.2131,89.3,1111122 
DISL,ioos:station:DISL:KATA:1,2011-12-05T21:30:00Z,30.2583,-88.2131,92.1,1111122 
DISL,ioos:station:DISL:KATA:1,2011-12-05T22:00:00Z,30.2583,-88.2131,94.3,1111122 
DISL,ioos:station:DISL:KATA:1,2011-12-05T22:30:00Z,30.2583,-88.2131,94.7,1111122 
DISL,ioos:station:DISL:KATA:1,2011-12-05T23:00:00Z,30.2583,-88.2131,95.1,1111122 
DISL,ioos:station:DISL:KATA:1,2011-12-05T23:30:00Z,30.2583,-88.2131,95.1,1111122 
DISL,ioos:station:DISL:KATA:1,2011-12-06T00:00:00Z,30.2583,-88.2131,95.3,1111122 
DISL,ioos:station:DISL:KATA:1,2011-12-06T00:30:00Z,30.2583,-88.2131,95.6,1111122 
DISL,ioos:station:DISL:KATA:1,2011-12-06T01:00:00Z,30.2583,-88.2131,95.2,1111122 
DISL,ioos:station:DISL:KATA:1,2011-12-06T01:30:00Z,30.2583,-88.2131,95.5,1111122 
DISL,ioos:station:DISL:KATA:1,2011-12-06T02:00:00Z,30.2583,-88.2131,96.0,1111122 
DISL,ioos:station:DISL:KATA:1,2011-12-06T02:30:00Z,30.2583,-88.2131,96.0,1111122 
DISL,ioos:station:DISL:KATA:1,2011-12-06T03:00:00Z,30.2583,-88.2131,96.1,1111122 
DISL,ioos:station:DISL:KATA:1,2011-12-06T03:30:00Z,30.2583,-88.2131,96.1,1111122 
DISL,ioos:station:DISL:KATA:1,2011-12-06T04:00:00Z,30.2583,-88.2131,96.0,1111122 
DISL,ioos:station:DISL:KATA:1,2011-12-06T04:30:00Z,30.2583,-88.2131,96.2,1111122 
DISL,ioos:station:DISL:KATA:1,2011-12-06T05:00:00Z,30.2583,-88.2131,96.4,1111122 
DISL,ioos:station:DISL:KATA:1,2011-12-06T05:30:00Z,30.2583,-88.2131,96.5,1111122 
DISL,ioos:station:DISL:KATA:1,2011-12-06T06:00:00Z,30.2583,-88.2131,96.5,1111122 
DISL,ioos:station:DISL:KATA:1,2011-12-06T06:30:00Z,30.2583,-88.2131,96.5,1111122 
DISL,ioos:station:DISL:KATA:1,2011-12-06T07:00:00Z,30.2583,-88.2131,96.4,1111122 
DISL,ioos:station:DISL:KATA:1,2011-12-06T07:30:00Z,30.2583,-88.2131,96.1,1111122 
DISL,ioos:station:DISL:KATA:1,2011-12-06T08:00:00Z,30.2583,-88.2131,95.9,1111122 
DISL,ioos:station:DISL:KATA:1,2011-12-06T08:30:00Z,30.2583,-88.2131,96.3,1111122 
DISL,ioos:station:DISL:KATA:1,2011-12-06T09:00:00Z,30.2583,-88.2131,96.4,1111122 
DISL,ioos:station:DISL:KATA:1,2011-12-06T09:30:00Z,30.2583,-88.2131,96.2,1111122 
DISL,ioos:station:DISL:KATA:1,2011-12-06T10:00:00Z,30.2583,-88.2131,96.4,1111122 
DISL,ioos:station:DISL:KATA:1,2011-12-06T10:30:00Z,30.2583,-88.2131,96.4,1111122 
DISL,ioos:station:DISL:KATA:1,2011-12-06T11:00:00Z,30.2583,-88.2131,96.5,1111122 
DISL,ioos:station:DISL:KATA:1,2011-12-06T11:30:00Z,30.2583,-88.2131,96.5,1111122 
DISL,ioos:station:DISL:KATA:1,2011-12-06T12:00:00Z,30.2583,-88.2131,96.6,1111122 
DISL,ioos:station:DISL:KATA:1,2011-12-06T12:30:00Z,30.2583,-88.2131,96.7,1111122 
DISL,ioos:station:DISL:KATA:1,2011-12-06T13:00:00Z,30.2583,-88.2131,96.8,1111122 
DISL,ioos:station:DISL:KATA:1,2011-12-06T13:30:00Z,30.2583,-88.2131,97.0,1111122 
DISL,ioos:station:DISL:KATA:1,2011-12-06T14:00:00Z,30.2583,-88.2131,96.9,1111122 
DISL,ioos:station:DISL:KATA:1,2011-12-06T14:30:00Z,30.2583,-88.2131,97.1,1111122 
DISL,ioos:station:DISL:KATA:1,2011-12-06T15:00:00Z,30.2583,-88.2131,97.1,1111122 
DISL,ioos:station:DISL:KATA:1,2011-12-06T15:30:00Z,30.2583,-88.2131,97.2,1111122 
DISL,ioos:station:DISL:KATA:1,2011-12-06T16:00:00Z,30.2583,-88.2131,97.3,1111122 
DISL,ioos:station:DISL:KATA:1,2011-12-06T16:30:00Z,30.2583,-88.2131,97.3,1111122 
DISL,ioos:station:DISL:KATA:1,2011-12-06T17:00:00Z,30.2583,-88.2131,97.1,1111122 
DISL,ioos:station:DISL:KATA:1,2011-12-06T17:30:00Z,30.2583,-88.2131,96.7,1111122 
DISL,ioos:station:DISL:KATA:1,2011-12-06T18:00:00Z,30.2583,-88.2131,96.0,1111122 
DISL,ioos:station:DISL:KATA:1,2011-12-06T18:30:00Z,30.2583,-88.2131,95.4,1111122 
DISL,ioos:station:DISL:KATA:1,2011-12-06T19:00:00Z,30.2583,-88.2131,94.4,1111122 
DISL,ioos:station:DISL:KATA:1,2011-12-06T19:30:00Z,30.2583,-88.2131,93.6,1111122 
DISL,ioos:station:DISL:KATA:1,2011-12-06T20:00:00Z,30.2583,-88.2131,94.3,1111122 
DISL,ioos:station:DISL:KATA:1,2011-12-06T20:30:00Z,30.2583,-88.2131,92.2,1111122 
DISL,ioos:station:DISL:KATA:1,2011-12-06T21:00:00Z,30.2583,-88.2131,92.3,1111122 
DISL,ioos:station:DISL:KATA:1,2011-12-06T21:30:00Z,30.2583,-88.2131,91.0,1111122 
DISL,ioos:station:DISL:KATA:1,2011-12-06T22:00:00Z,30.2583,-88.2131,91.6,1111122 
DISL,ioos:station:DISL:KATA:1,2011-12-06T22:30:00Z,30.2583,-88.2131,90.4,1111122 
DISL,ioos:station:DISL:KATA:1,2011-12-06T23:00:00Z,30.2583,-88.2131,92.4,1111122 
DISL,ioos:station:DISL:KATA:1,2011-12-06T23:30:00Z,30.2583,-88.2131,93.1,1111122 
DISL,ioos:station:DISL:KATA:1,2011-12-07T00:00:00Z,30.2583,-88.2131,93.8,1111122 
DISL,ioos:station:DISL:KATA:1,2011-12-07T00:30:00Z,30.2583,-88.2131,92.6,1111122 